Theta_e
290 286 282 286 291 292 291 289 289 294 297 296 299 301 304 307 311 312 313 314 314 316 318 316 317 319 319 321 322 323 322 321 317 313 309 307 302 299 298 298 299 299 300 300
286 282 287 291 292 290 288 287 287 293 297 295 295 294 294 305 308 312 313 313 314 315 316 314 316 317 318 319 322 323 322 319 318 317 312 305 300 297 296 296 296 297 298 298
284 285 290 288 287 286 287 285 287 288 295 295 293 290 293 301 307 312 315 315 315 315 315 313 314 316 318 319 321 323 322 319 320 309 301 298 297 295 294 294 294 295 296 296
284 289 287 286 285 287 282 290 291 290 289 283 294 283 293 299 303 304 310 314 314 314 316 313 310 311 316 313 318 320 321 317 309 306 302 301 300 294 293 293 293 294 296 296
281 285 286 284 285 288 284 292 290 289 287 287 289 284 289 299 299 302 305 312 314 314 312 309 308 305 303 306 307 308 308 309 307 305 304 300 295 293 293 293 294 294 293 293
285 290 289 288 291 291 292 290 289 289 286 280 286 286 286 293 296 302 305 310 313 310 306 302 301 302 302 303 303 302 300 298 299 299 297 296 293 292 293 294 292 291 291 291
282 283 289 291 286 290 289 286 279 278 279 276 287 285 288 294 299 302 304 308 311 306 301 299 299 299 299 300 300 299 299 296 297 296 295 295 295 296 295 294 292 289 288 288
277 272 287 290 286 284 285 285 280 274 276 276 288 284 290 296 298 305 307 309 303 302 300 300 299 299 298 298 298 298 298 297 297 297 297 298 297 296 294 292 291 289 288 287
279 278 288 290 290 289 285 281 290 280 278 277 283 288 294 296 298 304 303 300 299 299 299 299 299 298 297 297 297 297 296 296 296 296 295 294 294 292 290 289 288 287 286 286
284 279 284 290 292 291 285 289 283 284 270 272 280 284 285 287 290 300 298 299 297 297 296 296 296 295 296 296 295 295 295 294 293 293 292 291 290 289 287 286 286 286 286 285
287 285 281 286 286 285 284 284 285 286 282 276 276 282 287 287 290 293 296 294 293 293 293 294 294 294 293 293 292 292 292 292 291 290 289 288 287 286 286 285 285 285 284 283
287 283 278 279 288 291 287 284 285 282 281 283 281 282 291 291 294 292 290 290 291 292 293 292 291 291 291 290 290 289 289 288 288 287 286 285 285 284 284 283 284 284 282 282
287 281 275 276 282 288 286 288 289 288 286 282 280 283 291 291 291 291 289 290 291 291 290 290 290 290 289 289 289 288 287 286 286 286 284 283 282 282 282 282 282 282 281 281
289 284 280 276 280 285 283 286 287 287 282 283 283 284 286 288 288 288 289 290 290 290 290 290 289 290 290 289 287 286 285 285 284 284 282 281 281 281 281 281 281 281 280 280
286 279 282 283 284 284 284 285 286 285 286 283 285 285 287 288 289 289 290 290 290 290 290 289 288 287 287 286 286 285 284 283 283 281 281 280 280 280 280 280 280 280 280 279
284 280 282 278 284 282 281 285 286 286 285 287 287 286 290 290 290 289 290 290 289 290 290 290 288 287 286 286 284 284 282 281 281 280 279 279 279 279 279 279 278 279 278 279
280 279 277 275 281 280 275 281 285 285 287 287 285 288 291 291 289 289 290 290 290 290 291 290 289 288 287 286 285 283 282 281 280 279 279 279 279 278 278 278 278 277 277 277
279 278 278 275 277 271 282 283 283 285 285 286 289 288 289 291 291 291 292 291 291 291 291 292 291 289 287 286 285 282 281 280 280 279 278 278 278 277 277 276 276 276 276 276
283 281 277 272 272 278 280 282 282 283 281 283 285 289 289 291 290 289 292 292 292 293 293 293 292 290 287 284 282 281 280 280 279 278 277 277 277 276 276 276 275 275 275 275
283 284 279 271 271 269 279 282 284 286 279 283 283 286 288 289 286 288 288 292 292 292 293 291 289 288 286 282 282 281 279 279 278 278 277 277 277 277 276 276 275 275 275 275
276 274 271 272 273 275 281 282 283 276 280 283 283 285 287 286 286 287 289 289 290 290 289 287 286 285 284 282 282 280 279 279 278 278 277 277 276 276 276 276 275 274 274 274
271 268 267 271 270 269 282 283 280 283 284 284 283 283 284 285 286 286 286 286 287 285 284 284 283 281 281 282 282 280 279 279 278 277 277 276 276 276 276 275 274 273 273 272
272 277 273 275 275 282 282 282 284 284 283 283 283 283 283 283 284 283 284 284 283 283 282 281 280 279 279 280 281 280 279 278 277 277 276 275 276 276 275 274 273 272 272 271
273 277 276 278 280 281 282 283 283 284 283 283 283 283 283 282 283 282 282 282 281 279 279 277 278 277 276 277 279 280 279 278 278 277 275 274 273 272 273 273 272 271 270 270
272 274 271 274 280 281 279 278 280 281 282 282 282 282 283 283 282 282 280 279 278 276 274 275 276 277 276 278 278 278 277 278 277 275 273 273 273 272 270 270 270 270 270 271
272 273 274 272 278 278 278 278 278 279 278 278 279 280 281 282 281 279 277 277 275 274 272 273 273 277 277 278 277 277 278 279 276 272 272 271 271 270 268 268 268 274 275 276
Wind_Speed
3 1 5 8 8 9 13 19 18 7 5 7 15 20 16 9 10 12 12 13 14 16 13 13 12 12 11 11 12 13 12 13 10 7 6 5 5 5 5 6 8 7 8 8
3 7 14 9 4 7 8 13 23 17 8 2 12 13 10 16 17 14 16 15 15 12 13 13 14 12 13 13 13 13 14 14 10 7 5 5 5 5 6 5 8 8 8 8
6 10 1 7 11 12 13 13 8 15 7 8 6 12 14 14 12 11 13 14 14 15 15 14 14 14 12 13 13 13 13 14 11 11 9 8 8 6 4 6 7 8 9 10
10 6 9 12 13 8 14 8 16 14 13 19 12 14 10 18 24 10 13 14 16 15 13 11 12 11 12 6 8 10 13 11 10 11 9 14 7 7 4 6 7 7 9 10
10 4 5 10 13 11 9 10 10 14 11 6 10 7 6 7 17 23 14 17 14 16 16 14 12 10 7 7 7 7 9 8 10 9 10 8 10 9 8 7 10 9 9 10
18 7 6 9 6 7 6 9 9 11 7 9 14 11 8 13 20 20 20 16 19 16 13 10 10 11 9 7 8 8 10 9 9 10 10 11 15 14 11 8 7 5 6 6
5 5 4 3 2 7 8 6 4 7 8 6 6 15 17 8 18 23 27 22 16 15 16 15 12 11 10 9 8 9 11 11 11 14 14 16 14 11 12 9 7 8 6 4
5 9 6 3 2 4 1 9 7 8 4 1 6 10 5 5 8 14 24 16 16 15 13 16 12 10 11 10 9 10 10 13 11 12 14 15 14 8 7 8 7 7 5 5
6 7 2 5 5 3 5 10 7 2 1 3 5 5 6 8 8 9 17 18 17 15 15 14 14 11 12 10 10 11 13 14 13 11 12 10 11 10 8 11 9 7 7 7
5 9 4 1 4 7 5 7 4 5 5 5 3 4 3 12 12 11 16 16 14 12 14 13 12 13 10 11 10 10 9 13 16 14 11 11 11 11 10 10 9 8 9 9
6 5 10 3 5 1 5 3 6 4 3 4 3 1 2 10 13 4 9 12 14 14 14 13 10 14 11 12 11 11 9 9 10 14 12 14 12 8 9 9 9 8 9 9
4 6 7 10 5 3 4 5 4 4 4 1 3 1 7 13 7 8 8 10 11 12 12 13 14 13 14 12 12 13 10 10 9 10 10 15 12 9 8 10 9 8 9 9
8 4 8 9 4 2 5 3 5 6 2 1 1 5 9 10 7 7 10 9 11 13 14 13 15 12 11 11 12 11 8 11 8 10 9 12 12 9 9 8 8 8 10 9
6 5 4 7 13 6 7 7 4 4 3 2 4 4 8 8 6 7 9 9 11 12 12 12 11 11 11 11 10 11 8 9 7 8 9 11 10 9 8 8 8 9 8 8
7 6 5 13 15 6 6 8 5 4 4 4 2 5 8 9 5 4 7 9 11 12 12 12 12 9 9 10 10 10 9 9 8 9 10 9 9 8 8 8 8 8 7 7
7 5 9 6 7 9 6 7 4 4 4 1 2 4 4 4 4 4 7 8 8 9 11 12 13 12 11 11 10 11 10 9 8 10 10 9 9 8 8 8 7 7 7 6
5 5 5 4 7 14 4 5 5 3 3 3 3 1 2 4 3 3 7 9 10 11 11 12 12 12 11 11 11 11 11 9 9 10 9 8 7 8 7 7 7 6 6 5
5 5 3 6 8 5 4 2 4 3 4 7 4 2 2 2 6 3 3 5 8 9 11 10 10 9 9 9 9 10 10 9 9 9 8 8 7 7 6 6 5 5 4 4
10 4 4 3 3 7 5 7 6 5 6 6 6 6 5 5 3 5 3 3 6 10 10 10 10 11 10 11 11 11 10 10 9 9 8 8 7 7 6 6 5 4 4 3
5 6 2 3 2 3 3 6 6 4 5 6 7 7 4 6 4 3 6 3 6 7 9 10 10 10 12 11 12 12 10 9 8 8 9 8 7 7 6 5 5 3 2 3
1 1 3 2 3 8 6 8 6 5 4 6 6 4 5 3 1 4 5 7 4 4 8 12 12 10 10 12 12 11 10 8 7 7 7 7 6 6 6 5 2 3 3 3
4 3 4 2 1 5 5 5 5 3 4 4 5 5 5 5 5 5 7 6 6 7 6 7 10 9 10 12 11 11 10 8 9 9 8 7 6 5 5 6 4 4 4 3
4 5 3 7 6 3 3 2 3 3 3 3 5 6 5 5 5 5 4 6 5 5 5 5 7 8 5 6 8 12 9 9 9 9 8 6 6 6 5 5 5 3 2 2
5 3 3 3 3 4 2 5 3 5 4 3 4 4 5 4 4 4 5 5 5 5 5 3 7 7 6 4 6 8 9 9 10 10 7 6 6 6 4 3 3 3 2 1
5 3 4 5 8 6 2 5 6 7 5 6 4 2 4 3 3 3 4 6 6 5 4 4 5 7 6 7 7 8 9 10 9 9 7 6 4 4 4 4 2 2 1 2
5 8 6 6 1 2 1 5 4 6 5 5 4 3 3 5 4 4 5 4 4 5 2 5 4 8 6 7 7 7 7 8 9 7 5 4 4 3 3 3 3 2 3 2
Wind_Direction
318 334 231 231 244 283 273 274 269 266 340 349 259 254 223 202 200 217 214 198 196 207 191 182 174 174 169 173 168 171 153 152 141 135 129 117 111 103 78 70 73 73 79 80
338 248 237 229 251 275 305 282 270 278 262 252 294 289 319 240 208 205 215 214 202 192 179 185 174 173 174 171 179 173 161 160 160 154 127 122 131 97 99 89 75 71 75 79
251 248 7 231 233 241 258 281 279 266 254 221 261 277 273 256 205 200 207 210 208 196 184 180 172 173 170 178 176 174 166 165 157 131 115 102 100 106 99 92 81 66 73 70
268 253 225 238 248 221 255 276 263 256 253 251 180 272 242 225 218 208 202 187 189 178 186 174 164 160 165 148 135 148 155 148 139 146 141 157 151 139 127 116 105 82 69 73
263 280 254 220 231 205 253 227 265 288 248 232 197 239 217 167 230 211 208 208 191 180 174 172 160 139 116 117 112 106 108 115 138 143 149 135 114 114 115 110 102 87 72 62
260 246 259 209 201 197 271 255 235 254 231 233 220 212 214 208 207 222 209 207 193 165 141 136 127 130 127 115 111 110 108 100 102 111 117 123 128 129 124 125 110 102 90 80
288 230 244 155 264 198 198 226 197 230 208 226 246 197 244 205 213 214 198 189 170 152 150 141 147 153 134 130 124 122 122 116 117 114 115 115 113 117 128 125 115 115 94 91
320 330 174 140 223 307 171 242 231 237 232 256 260 225 210 292 265 228 192 158 140 149 151 145 150 151 133 133 130 126 130 125 120 118 125 128 125 118 106 105 112 95 97 122
296 275 279 178 138 158 0 218 227 233 280 235 228 256 250 339 309 138 142 144 146 146 146 141 136 142 128 135 135 134 134 124 119 120 108 98 97 99 113 105 108 109 119 109
270 275 237 112 196 218 198 306 198 204 180 236 256 276 0 316 328 157 153 156 144 138 133 133 137 124 117 112 109 114 124 125 123 109 113 101 100 104 119 106 109 111 109 112
287 286 287 332 216 154 217 255 255 228 243 138 238 208 164 290 293 252 146 138 135 138 136 128 128 106 109 99 102 100 103 103 104 109 114 108 108 121 106 113 117 119 115 119
300 287 287 239 188 225 200 269 231 255 197 307 245 359 13 313 279 125 104 114 116 119 128 122 114 115 111 110 111 92 104 94 95 95 113 113 113 117 119 116 115 117 116 105
350 315 305 340 3 274 287 249 284 309 264 270 335 13 353 333 52 95 114 112 119 121 116 121 111 117 117 118 107 116 126 111 97 118 134 110 105 109 109 111 112 116 105 103
304 272 254 309 308 305 287 299 311 289 349 311 47 313 327 3 50 92 103 111 116 116 119 118 116 124 132 124 129 109 110 104 133 134 110 101 110 117 114 118 115 111 115 122
351 288 314 302 295 303 284 283 289 327 1 36 31 11 338 358 36 68 102 113 120 123 125 123 125 122 121 121 115 111 113 127 141 115 103 108 113 116 125 121 115 114 118 121
336 284 311 276 304 327 305 342 350 343 309 71 44 33 283 46 39 125 130 122 121 125 129 132 132 135 136 135 130 130 139 138 127 112 118 129 125 131 122 112 113 115 115 125
300 329 316 293 316 309 349 339 343 325 297 339 20 117 250 107 122 250 162 161 158 152 150 147 151 153 146 151 149 145 140 130 122 122 127 125 130 121 118 122 120 123 130 126
295 305 278 291 321 30 259 288 243 263 19 350 3 21 57 38 101 144 210 171 150 152 158 157 149 147 141 133 134 125 126 125 124 128 131 131 132 127 123 126 125 118 119 127
223 277 314 358 294 284 346 356 7 22 10 357 330 314 354 351 131 75 64 175 171 170 168 166 156 147 134 137 130 127 134 131 141 144 144 144 138 133 137 132 124 120 124 117
197 247 276 358 336 283 283 319 350 338 17 359 4 349 314 330 63 333 9 114 144 150 143 136 137 138 142 140 139 139 143 148 146 153 156 144 135 143 135 127 128 112 121 144
237 196 201 237 267 286 286 308 326 60 296 333 352 347 359 58 53 325 5 44 79 112 129 128 140 146 142 142 139 136 140 150 144 128 127 124 122 120 116 109 109 115 115 113
188 153 216 123 294 296 338 340 67 277 295 327 349 359 21 30 22 18 25 41 74 99 109 121 128 134 141 147 139 138 149 142 133 130 131 124 120 118 116 124 117 115 116 110
257 195 202 184 222 264 311 287 261 227 273 17 359 345 6 17 23 28 40 52 64 87 92 81 110 109 104 127 141 140 144 139 131 113 110 114 104 96 120 139 128 104 121 164
251 183 215 11 279 258 310 305 324 347 327 43 45 352 355 7 9 47 62 69 80 71 77 69 118 115 116 103 103 115 127 123 124 119 115 109 118 122 114 102 104 118 142 125
206 89 189 262 278 298 97 15 336 335 341 13 348 66 355 348 39 65 72 63 61 60 44 52 90 92 105 109 97 113 126 127 116 117 126 132 131 126 110 85 113 121 151 130
190 190 175 223 231 184 232 314 345 15 356 353 357 50 41 15 65 85 79 76 97 92 91 89 89 104 104 102 102 106 112 116 124 121 139 133 122 129 120 124 91 59 134 141